Weather in Valday

Russia / Republic of Karelia     63°25′44″N   35°30′51″E
temp.,
°C
wind,
m/s
gust,
m/s
humid.,
%
clouds,
%
prec.,
mm/h
press.,
hPa
HPBL,
m
3 march, wed
wed300:00−7wnw410930 0.0 1008250
03:00−8w48962 0.0 1008188
06:00−6wnw5119598 0.3 1005383
09:00−5wnw5109498 0.4 1004545
12:00−4wnw5990100 0.4 1002569
15:00−3w4895100 0.5 1000597
18:00−4w2598100 0.4 997137
21:00−5nne379598 0.7 997257
4 march, thu
thu400:00−8n379597 0.1 997245
03:00−11nnw359794 0.1 999119
06:00−12nnw259788 0.1 1000119
09:00−12nnw259691 0.1 1000170
12:00−9wnw239497 0.1 1000249
15:00−8w359499 0.3 1001292
18:00−9wnw3596100 0.2 1001118
21:00−10nw3696100 0.3 1001198
5 march, fri
fri500:00−11n3895100 0.1 1002278
03:00−15n249794 0.1 100470
06:00−15nnw379795 0.0 1006174
09:00−16nnw369694 0.1 1007181
12:00−12wnw238986 0.0 1008272
15:00−11w359286 0.0 1009328
18:00−11w379699 0.1 1009225
21:00−11nw379699 0.2 1009188
6 march, sat
sat600:00−14nw229754 0.0 101020
03:00−14w239873 0.1 101036
06:00−16wsw239898 0.0 101058
09:00−15sw359697 0.1 1008123
12:00−11sw369399 0.0 1006300
15:00−9ssw489198 0.1 1002434
18:00−10s51091100 0.0 998440
21:00−8sse61194100 0.5 993631
7 march, sun
sun700:00−8se51293100 0.6 989667
03:00−8ese51191100 0.8 986541
06:00−8e61193100 0.6 985575
09:00−9ene6119099 0.9 985570
12:00−10ne71189100 0.2 988650
15:00−11nne71388100 0.3 992721
18:00−12nne71390100 0.3 995882
21:00−16nne71490100 0.4 998612